Location: �perlecques
(50.8057°N, 2.1521°E)
Time: 21:50:22
(UTC+00:00)

UWE-3 - Visible Passes

Search period start: 31 March 2023 00:00
Search period end: 10 April 2023 00:00
Orbit: 579 x 670 km, 97.7° (Epoch: 30 March)

Date Brightness Start Highest point End Pass type
(mag) Time Alt. Az. Time Alt. Az. Time Alt. Az.
31 Mar ? 02:51:44 10° NNE 02:56:14 72° ESE 02:57:07 54° SSE visible
31 Mar ? 04:28:58 10° NNW 04:31:56 18° WNW 04:34:23 12° W visible
01 Apr ? 01:35:44 10° NE 01:38:08 14° E 01:38:53 14° E visible
01 Apr ? 03:10:28 10° N 03:14:57 77° WNW 03:16:09 48° SSW visible
01 Apr ? 04:48:28 10° NNW 04:50:24 13° NW 04:52:18 10° W visible
02 Apr ? 01:53:42 10° NE 01:57:04 21° E 01:57:54 20° ESE visible
02 Apr ? 03:29:16 10° N 03:33:37 52° WNW 03:35:10 34° SW visible
03 Apr ? 02:12:01 10° NNE 02:15:56 30° E 02:16:54 27° ESE visible
03 Apr ? 03:48:09 10° N 03:52:13 35° WNW 03:54:10 23° WSW visible
04 Apr ? 02:30:29 10° NNE 02:34:45 44° E 02:35:53 36° SE visible
04 Apr ? 04:07:07 10° N 04:10:44 25° WNW 04:13:09 16° WSW visible
05 Apr ? 02:49:03 10° NNE 02:53:29 68° ESE 02:54:52 41° S visible
05 Apr ? 04:26:14 10° NNW 04:29:12 18° WNW 04:32:07 10° W visible
06 Apr ? 01:33:12 10° ENE 01:35:17 13° E 01:36:34 12° ESE visible
06 Apr ? 03:07:43 10° NNE 03:12:09 81° WNW 03:13:50 37° SSW visible
07 Apr ? 01:51:00 10° NE 01:54:10 19° E 01:55:31 17° ESE visible
07 Apr ? 03:26:27 10° N 03:30:45 54° WNW 03:32:47 28° SW visible
08 Apr ? 02:09:11 10° NNE 02:12:59 28° E 02:14:27 23° SE visible
08 Apr ? 03:45:15 10° N 03:49:17 36° WNW 03:51:43 20° WSW visible
09 Apr ? 02:27:35 10° NNE 02:31:44 41° E 02:33:23 29° SSE visible
09 Apr ? 04:04:09 10° N 04:07:46 26° WNW 04:10:38 13° WSW visible
